Location: McFarlands Corners
(41.4117°N, 81.3382°W)
Time: 10:05:24
(UTC+00:00)

Courier 1B Rocket - Pass Details

Date: 25 February 2026
Orbit: 920 x 1201 km, 28.2° (Epoch: 10 March)

Event Time Altitude Azimuth Distance (km) Brightness Sun altitude
Rises 02:24:32 0° 253° (WSW) 3,546 8.5 -36.6°
Reaches altitude 10° 02:28:35 10° 228° (SW) 2,613 7.4 -37.3°
Enters shadow 02:29:13 11° 222° (SW) 2,522 7.3 -37.4°
Maximum altitude 02:31:29 14° 200° (SSW) 2,381 - -37.8°
Drops below altitude 10° 02:34:25 10° 172° (S) 2,652 - -38.3°
Sets 02:38:36 0° 147° (SSE) 3,644 - -39.0°
